Data supplied by UK-AIR on 18/6/2019
All Data GMT hour ending 
Status: R =Ratified P=Provisional,P*=As supplied
,,Market Harborough,,,,,,,,,,,,,,,,,,,,,,,
Date,time,"Nitric oxide",status,unit,"Nitrogen dioxide",status,unit,"Nitrogen oxides as nitrogen dioxide",status,unit,"Ozone",status,unit
 
01-01-2019,01:00,0.04840,R,ugm-3,0.67031,R,ugm-3,0.74453,R,ugm-3,69.98255,R,ugm-3
01-01-2019,02:00,0.04840,R,ugm-3,1.04258,R,ugm-3,1.11679,R,ugm-3,66.92247,R,ugm-3
01-01-2019,03:00,0.03630,R,ugm-3,0.72609,R,ugm-3,0.78175,R,ugm-3,66.00778,R,ugm-3
01-01-2019,04:00,0.00000,R,ugm-3,0.67007,R,ugm-3,0.67007,R,ugm-3,63.91229,R,ugm-3
01-01-2019,05:00,0.07260,R,ugm-3,1.56386,R,ugm-3,1.67518,R,ugm-3,62.06627,R,ugm-3
01-01-2019,06:00,0.07260,R,ugm-3,1.84306,R,ugm-3,1.95438,R,ugm-3,60.46971,R,ugm-3
01-01-2019,07:00,0.00000,R,ugm-3,2.12190,R,ugm-3,2.12190,R,ugm-3,57.62584,R,ugm-3
01-01-2019,08:00,0.10890,R,ugm-3,2.45747,R,ugm-3,2.62445,R,ugm-3,57.22670,R,ugm-3
01-01-2019,09:00,0.10890,R,ugm-3,2.06660,R,ugm-3,2.23358,R,ugm-3,55.28089,R,ugm-3
01-01-2019,10:00,0.14520,R,ugm-3,1.34086,R,ugm-3,1.56350,R,ugm-3,56.22885,R,ugm-3
01-01-2019,11:00,0.14520,R,ugm-3,2.01093,R,ugm-3,2.23358,R,ugm-3,52.98584,R,ugm-3
01-01-2019,12:00,0.32671,R,ugm-3,2.57022,R,ugm-3,3.07117,R,ugm-3,51.13981,R,ugm-3
01-01-2019,13:00,0.43561,R,ugm-3,2.73828,R,ugm-3,3.40621,R,ugm-3,55.48046,R,ugm-3
01-01-2019,14:00,0.18151,R,ugm-3,1.56440,R,ugm-3,1.84270,R,ugm-3,65.45896,R,ugm-3
01-01-2019,15:00,0.07260,R,ugm-3,0.94963,R,ugm-3,1.06095,R,ugm-3,71.19660,R,ugm-3
01-01-2019,16:00,0.00000,R,ugm-3,1.11679,R,ugm-3,1.11679,R,ugm-3,69.64993,R,ugm-3
01-01-2019,17:00,0.00000,R,ugm-3,2.84781,R,ugm-3,2.84781,R,ugm-3,63.71272,R,ugm-3
01-01-2019,18:00,0.00000,R,ugm-3,3.68540,R,ugm-3,3.68540,R,ugm-3,58.87315,R,ugm-3
01-01-2019,19:00,0.07260,R,ugm-3,4.69087,R,ugm-3,4.80219,R,ugm-3,54.58240,R,ugm-3
01-01-2019,20:00,0.00000,R,ugm-3,4.07628,R,ugm-3,4.07628,R,ugm-3,55.23100,R,ugm-3
01-01-2019,21:00,0.00000,R,ugm-3,2.56861,R,ugm-3,2.56861,R,ugm-3,60.12046,R,ugm-3
01-01-2019,22:00,0.03630,R,ugm-3,2.68047,R,ugm-3,2.73613,R,ugm-3,60.41982,R,ugm-3
01-01-2019,23:00,0.14520,R,ugm-3,5.13794,R,ugm-3,5.36059,R,ugm-3,58.27444,R,ugm-3
01-01-2019,24:00,0.00000,R,ugm-3,2.45694,R,ugm-3,2.45694,R,ugm-3,66.45681,R,ugm-3
02-01-2019,01:00,0.14555,R,ugm-3,2.46360,R,ugm-3,2.68677,R,ugm-3,66.52333,R,ugm-3
02-01-2019,02:00,0.14555,R,ugm-3,3.06066,R,ugm-3,3.28383,R,ugm-3,68.98470,R,ugm-3
02-01-2019,03:00,0.14555,R,ugm-3,1.84788,R,ugm-3,2.07105,R,ugm-3,69.40047,R,ugm-3
02-01-2019,04:00,0.07278,R,ugm-3,1.00790,R,ugm-3,1.11949,R,ugm-3,71.99488,R,ugm-3
02-01-2019,05:00,0.10916,R,ugm-3,0.78418,R,ugm-3,0.95156,R,ugm-3,71.79531,R,ugm-3
02-01-2019,06:00,0.03639,R,ugm-3,0.78382,R,ugm-3,0.83962,R,ugm-3,72.34413,R,ugm-3
02-01-2019,07:00,0.00000,R,ugm-3,1.17546,R,ugm-3,1.17546,R,ugm-3,70.84735,R,ugm-3
02-01-2019,08:00,0.40027,R,ugm-3,1.90512,R,ugm-3,2.51885,R,ugm-3,70.39832,R,ugm-3
02-01-2019,09:00,0.25471,R,ugm-3,3.52765,R,ugm-3,3.91821,R,ugm-3,68.10326,R,ugm-3
02-01-2019,10:00,0.32749,R,ugm-3,6.66258,R,ugm-3,7.16472,R,ugm-3,62.66498,R,ugm-3
02-01-2019,11:00,0.47304,R,ugm-3,7.72682,R,ugm-3,8.45213,R,ugm-3,64.46111,R,ugm-3
02-01-2019,12:00,0.54582,R,ugm-3,8.17497,R,ugm-3,9.01188,R,ugm-3,63.36348,R,ugm-3
02-01-2019,13:00,0.87331,R,ugm-3,10.13570,R,ugm-3,11.47475,R,ugm-3,62.51530,R,ugm-3
02-01-2019,14:00,0.50943,R,ugm-3,7.83895,R,ugm-3,8.62006,R,ugm-3,65.55875,R,ugm-3
02-01-2019,15:00,0.54582,R,ugm-3,11.47746,R,ugm-3,12.31437,R,ugm-3,59.27229,R,ugm-3
02-01-2019,16:00,0.21833,R,ugm-3,9.12491,R,ugm-3,9.45967,R,ugm-3,63.61294,R,ugm-3
02-01-2019,17:00,0.10916,R,ugm-3,8.78852,R,ugm-3,8.95590,R,ugm-3,61.01853,R,ugm-3
02-01-2019,18:00,0.14555,R,ugm-3,9.12455,R,ugm-3,9.34772,R,ugm-3,57.82541,R,ugm-3
02-01-2019,19:00,0.14555,R,ugm-3,8.84468,R,ugm-3,9.06785,R,ugm-3,59.37208,R,ugm-3
02-01-2019,20:00,0.14555,R,ugm-3,5.93401,R,ugm-3,6.15718,R,ugm-3,63.66283,R,ugm-3
02-01-2019,21:00,0.10916,R,ugm-3,4.08667,R,ugm-3,4.25405,R,ugm-3,67.60434,R,ugm-3
02-01-2019,22:00,0.14555,R,ugm-3,2.79944,R,ugm-3,3.02262,R,ugm-3,71.74542,R,ugm-3
02-01-2019,23:00,0.14555,R,ugm-3,4.75855,R,ugm-3,4.98172,R,ugm-3,60.81896,R,ugm-3
02-01-2019,24:00,0.14555,R,ugm-3,5.20634,R,ugm-3,5.42952,R,ugm-3,61.66713,R,ugm-3
03-01-2019,01:00,0.14590,R,ugm-3,2.61917,R,ugm-3,2.84287,R,ugm-3,68.18642,R,ugm-3
03-01-2019,02:00,0.29180,R,ugm-3,7.55752,R,ugm-3,8.00494,R,ugm-3,56.07917,R,ugm-3
03-01-2019,03:00,0.25532,R,ugm-3,4.88279,R,ugm-3,5.27428,R,ugm-3,63.91229,R,ugm-3
03-01-2019,04:00,0.14590,R,ugm-3,2.97453,R,ugm-3,3.19823,R,ugm-3,71.49595,R,ugm-3
03-01-2019,05:00,0.14590,R,ugm-3,3.03064,R,ugm-3,3.25434,R,ugm-3,66.50670,R,ugm-3
03-01-2019,06:00,0.18237,R,ugm-3,4.37744,R,ugm-3,4.65708,R,ugm-3,62.81466,R,ugm-3
03-01-2019,07:00,0.21885,R,ugm-3,5.49981,R,ugm-3,5.83537,R,ugm-3,56.17896,R,ugm-3
03-01-2019,08:00,0.21885,R,ugm-3,7.40753,R,ugm-3,7.74309,R,ugm-3,49.54325,R,ugm-3
03-01-2019,09:00,0.21885,R,ugm-3,6.28535,R,ugm-3,6.62091,R,ugm-3,56.57810,R,ugm-3
03-01-2019,10:00,0.29180,R,ugm-3,5.83684,R,ugm-3,6.28425,R,ugm-3,58.02498,R,ugm-3
03-01-2019,11:00,0.25532,R,ugm-3,5.38778,R,ugm-3,5.77926,R,ugm-3,58.42412,R,ugm-3
03-01-2019,12:00,0.36474,R,ugm-3,5.44443,R,ugm-3,6.00370,R,ugm-3,58.12476,R,ugm-3
03-01-2019,13:00,0.29180,R,ugm-3,5.10741,R,ugm-3,5.55483,R,ugm-3,59.22240,R,ugm-3
03-01-2019,14:00,0.29180,R,ugm-3,5.38796,R,ugm-3,5.83537,R,ugm-3,58.87315,R,ugm-3
03-01-2019,15:00,0.43769,R,ugm-3,7.74529,R,ugm-3,8.41640,R,ugm-3,57.92519,R,ugm-3
03-01-2019,16:00,0.18237,R,ugm-3,8.58565,R,ugm-3,8.86528,R,ugm-3,58.72347,R,ugm-3
03-01-2019,17:00,0.18237,R,ugm-3,9.14674,R,ugm-3,9.42637,R,ugm-3,56.27874,R,ugm-3
03-01-2019,18:00,0.25532,R,ugm-3,13.24309,R,ugm-3,13.63457,R,ugm-3,48.09637,R,ugm-3
03-01-2019,19:00,0.18237,R,ugm-3,13.97214,R,ugm-3,14.25178,R,ugm-3,46.64949,R,ugm-3
03-01-2019,20:00,0.25532,R,ugm-3,14.19695,R,ugm-3,14.58843,R,ugm-3,45.70153,R,ugm-3
03-01-2019,21:00,0.29180,R,ugm-3,16.04874,R,ugm-3,16.49615,R,ugm-3,39.36518,R,ugm-3
03-01-2019,22:00,0.29180,R,ugm-3,15.48765,R,ugm-3,15.93506,R,ugm-3,33.82712,R,ugm-3
03-01-2019,23:00,0.29180,R,ugm-3,17.33925,R,ugm-3,17.78667,R,ugm-3,30.33464,R,ugm-3
03-01-2019,24:00,0.29180,R,ugm-3,19.58363,R,ugm-3,20.03104,R,ugm-3,30.93335,R,ugm-3
04-01-2019,01:00,0.29249,R,ugm-3,14.77499,R,ugm-3,15.22346,R,ugm-3,43.70583,R,ugm-3
04-01-2019,02:00,0.43873,R,ugm-3,15.90061,R,ugm-3,16.57333,R,ugm-3,40.44619,R,ugm-3
04-01-2019,03:00,0.43873,R,ugm-3,22.55619,R,ugm-3,23.22890,R,ugm-3,26.69249,R,ugm-3
04-01-2019,04:00,0.43873,R,ugm-3,22.94990,R,ugm-3,23.62262,R,ugm-3,23.05034,R,ugm-3
04-01-2019,05:00,0.43873,R,ugm-3,17.71918,R,ugm-3,18.39189,R,ugm-3,30.58410,R,ugm-3
04-01-2019,06:00,0.29249,R,ugm-3,14.51251,R,ugm-3,14.96099,R,ugm-3,35.62325,R,ugm-3
04-01-2019,07:00,0.32905,R,ugm-3,13.83777,R,ugm-3,14.34230,R,ugm-3,32.92905,R,ugm-3
04-01-2019,08:00,0.40217,R,ugm-3,14.79429,R,ugm-3,15.41094,R,ugm-3,31.83142,R,ugm-3
04-01-2019,09:00,1.68181,R,ugm-3,23.85609,R,ugm-3,26.43483,R,ugm-3,20.95485,R,ugm-3
04-01-2019,10:00,6.87349,R,ugm-3,31.41906,R,ugm-3,41.95826,R,ugm-3,13.87012,R,ugm-3
04-01-2019,11:00,10.96834,R,ugm-3,32.84585,R,ugm-3,49.66374,R,ugm-3,13.27141,R,ugm-3
04-01-2019,12:00,14.25884,R,ugm-3,37.19329,R,ugm-3,59.05654,R,ugm-3,14.11958,R,ugm-3
04-01-2019,13:00,17.87839,R,ugm-3,43.96089,R,ugm-3,71.37404,R,ugm-3,12.07399,R,ugm-3
04-01-2019,14:00,12.61359,R,ugm-3,44.83420,R,ugm-3,64.17477,R,ugm-3,15.36689,R,ugm-3
04-01-2019,15:00,5.41105,R,ugm-3,41.02945,R,ugm-3,49.32627,R,ugm-3,20.40603,R,ugm-3
04-01-2019,16:00,12.17485,R,ugm-3,54.73099,R,ugm-3,73.39884,R,ugm-3,6.03699,R,ugm-3
04-01-2019,17:00,14.14916,R,ugm-3,58.05938,R,ugm-3,79.75445,R,ugm-3,1.84602,R,ugm-3
04-01-2019,18:00,12.17485,R,ugm-3,56.41832,R,ugm-3,75.08617,R,ugm-3,1.99570,R,ugm-3
04-01-2019,19:00,6.32508,R,ugm-3,52.45166,R,ugm-3,62.14997,R,ugm-3,3.14323,R,ugm-3
04-01-2019,20:00,1.02371,R,ugm-3,44.83189,R,ugm-3,46.40156,R,ugm-3,6.68560,R,ugm-3
04-01-2019,21:00,0.87747,R,ugm-3,41.96270,R,ugm-3,43.30813,R,ugm-3,6.33635,R,ugm-3
04-01-2019,22:00,0.87747,R,ugm-3,36.33826,R,ugm-3,37.68369,R,ugm-3,10.87657,R,ugm-3
04-01-2019,23:00,0.43873,R,ugm-3,17.77542,R,ugm-3,18.44814,R,ugm-3,28.13937,R,ugm-3
04-01-2019,24:00,0.43873,R,ugm-3,17.83167,R,ugm-3,18.50438,R,ugm-3,26.64260,R,ugm-3
05-01-2019,01:00,0.43977,R,ugm-3,15.63810,R,ugm-3,16.31241,R,ugm-3,28.13937,R,ugm-3
05-01-2019,02:00,0.73296,R,ugm-3,30.07269,R,ugm-3,31.19654,R,ugm-3,12.50639,R,ugm-3
05-01-2019,03:00,0.62301,R,ugm-3,23.62609,R,ugm-3,24.58137,R,ugm-3,16.51442,R,ugm-3
05-01-2019,04:00,0.54972,R,ugm-3,20.86314,R,ugm-3,21.70602,R,ugm-3,22.65120,R,ugm-3
05-01-2019,05:00,0.29318,R,ugm-3,9.19132,R,ugm-3,9.64086,R,ugm-3,47.79702,R,ugm-3
05-01-2019,06:00,0.25654,R,ugm-3,6.25941,R,ugm-3,6.65276,R,ugm-3,53.43487,R,ugm-3
05-01-2019,07:00,0.21989,R,ugm-3,6.48474,R,ugm-3,6.82189,R,ugm-3,48.59530,R,ugm-3
05-01-2019,08:00,0.32983,R,ugm-3,9.75530,R,ugm-3,10.26103,R,ugm-3,39.46497,R,ugm-3
05-01-2019,09:00,0.36648,R,ugm-3,8.40238,R,ugm-3,8.96431,R,ugm-3,45.95099,R,ugm-3
05-01-2019,10:00,0.36648,R,ugm-3,6.65462,R,ugm-3,7.21655,R,ugm-3,51.63874,R,ugm-3
05-01-2019,11:00,0.36648,R,ugm-3,5.92169,R,ugm-3,6.48362,R,ugm-3,54.48261,R,ugm-3
05-01-2019,12:00,0.54972,R,ugm-3,9.47452,R,ugm-3,10.31741,R,ugm-3,51.53895,R,ugm-3
05-01-2019,13:00,0.62301,R,ugm-3,11.44817,R,ugm-3,12.40344,R,ugm-3,49.94239,R,ugm-3
05-01-2019,14:00,0.91620,R,ugm-3,15.11432,R,ugm-3,16.51913,R,ugm-3,40.06368,R,ugm-3
05-01-2019,15:00,0.91620,R,ugm-3,17.65138,R,ugm-3,19.05620,R,ugm-3,35.32389,R,ugm-3
05-01-2019,16:00,0.84290,R,ugm-3,19.56791,R,ugm-3,20.86034,R,ugm-3,35.07443,R,ugm-3
05-01-2019,17:00,0.65966,R,ugm-3,18.55215,R,ugm-3,19.56361,R,ugm-3,36.22196,R,ugm-3
05-01-2019,18:00,0.36648,R,ugm-3,16.91565,R,ugm-3,17.47758,R,ugm-3,39.01594,R,ugm-3
05-01-2019,19:00,0.32983,R,ugm-3,16.06978,R,ugm-3,16.57551,R,ugm-3,39.31529,R,ugm-3
05-01-2019,20:00,0.32983,R,ugm-3,13.25081,R,ugm-3,13.75655,R,ugm-3,46.79917,R,ugm-3
05-01-2019,21:00,0.32983,R,ugm-3,16.29529,R,ugm-3,16.80103,R,ugm-3,37.66884,R,ugm-3
05-01-2019,22:00,0.43977,R,ugm-3,27.74085,R,ugm-3,28.41516,R,ugm-3,21.05464,R,ugm-3
05-01-2019,23:00,0.51307,R,ugm-3,28.86881,R,ugm-3,29.65550,R,ugm-3,21.95270,R,ugm-3
05-01-2019,24:00,0.54972,R,ugm-3,26.78296,R,ugm-3,27.62585,R,ugm-3,25.44518,R,ugm-3
06-01-2019,01:00,0.48980,R,ugm-3,25.09484,R,ugm-3,25.84585,R,ugm-3,26.07715,R,ugm-3
06-01-2019,02:00,0.58775,R,ugm-3,23.43759,R,ugm-3,24.33880,R,ugm-3,26.40976,R,ugm-3
06-01-2019,03:00,0.55102,R,ugm-3,21.47824,R,ugm-3,22.32313,R,ugm-3,28.03959,R,ugm-3
06-01-2019,04:00,0.44082,R,ugm-3,15.31763,R,ugm-3,15.99353,R,ugm-3,33.77722,R,ugm-3
06-01-2019,05:00,0.40408,R,ugm-3,11.58750,R,ugm-3,12.20708,R,ugm-3,37.02024,R,ugm-3
06-01-2019,06:00,0.36735,R,ugm-3,11.19171,R,ugm-3,11.75496,R,ugm-3,36.67099,R,ugm-3
06-01-2019,07:00,0.36735,R,ugm-3,10.96565,R,ugm-3,11.52891,R,ugm-3,36.92045,R,ugm-3
06-01-2019,08:00,0.29388,R,ugm-3,8.30910,R,ugm-3,8.75971,R,ugm-3,43.70583,R,ugm-3
06-01-2019,09:00,0.29388,R,ugm-3,7.85699,R,ugm-3,8.30759,R,ugm-3,48.19616,R,ugm-3
06-01-2019,10:00,0.55102,R,ugm-3,8.02786,R,ugm-3,8.87274,R,ugm-3,48.54540,R,ugm-3
06-01-2019,11:00,0.73469,R,ugm-3,8.25486,R,ugm-3,9.38137,R,ugm-3,49.34368,R,ugm-3
06-01-2019,12:00,1.06530,R,ugm-3,10.12152,R,ugm-3,11.75496,R,ugm-3,46.35013,R,ugm-3
06-01-2019,13:00,1.72652,R,ugm-3,13.45926,R,ugm-3,16.10656,R,ugm-3,43.40648,R,ugm-3
06-01-2019,14:00,1.46938,R,ugm-3,12.04508,R,ugm-3,14.29810,R,ugm-3,43.90540,R,ugm-3
06-01-2019,15:00,1.24898,R,ugm-3,11.02670,R,ugm-3,12.94176,R,ugm-3,46.15056,R,ugm-3
06-01-2019,16:00,0.58775,R,ugm-3,11.53193,R,ugm-3,12.43313,R,ugm-3,46.54970,R,ugm-3
06-01-2019,17:00,0.29388,R,ugm-3,11.58693,R,ugm-3,12.03754,R,ugm-3,45.15271,R,ugm-3
06-01-2019,18:00,0.29388,R,ugm-3,12.60419,R,ugm-3,13.05479,R,ugm-3,41.76002,R,ugm-3
06-01-2019,19:00,0.29388,R,ugm-3,13.50841,R,ugm-3,13.95902,R,ugm-3,39.26540,R,ugm-3
06-01-2019,20:00,0.29388,R,ugm-3,11.02179,R,ugm-3,11.47239,R,ugm-3,44.60390,R,ugm-3
06-01-2019,21:00,0.29388,R,ugm-3,11.92602,R,ugm-3,12.37662,R,ugm-3,40.96174,R,ugm-3
06-01-2019,22:00,0.29388,R,ugm-3,11.30436,R,ugm-3,11.75496,R,ugm-3,38.16776,R,ugm-3
06-01-2019,23:00,0.36735,R,ugm-3,13.56531,R,ugm-3,14.12856,R,ugm-3,30.63400,R,ugm-3
06-01-2019,24:00,0.51428,R,ugm-3,20.34777,R,ugm-3,21.13633,R,ugm-3,20.75528,R,ugm-3
07-01-2019,01:00,0.39276,R,ugm-3,14.05104,R,ugm-3,14.65326,R,ugm-3,36.05565,R,ugm-3
07-01-2019,02:00,0.24548,R,ugm-3,5.13747,R,ugm-3,5.51386,R,ugm-3,54.01695,R,ugm-3
07-01-2019,03:00,0.25775,R,ugm-3,5.49631,R,ugm-3,5.89152,R,ugm-3,49.79272,R,ugm-3
07-01-2019,04:00,0.18411,R,ugm-3,3.17331,R,ugm-3,3.45560,R,ugm-3,55.58025,R,ugm-3
07-01-2019,05:00,0.18411,R,ugm-3,3.39991,R,ugm-3,3.68220,R,ugm-3,53.23530,R,ugm-3
07-01-2019,06:00,0.14729,R,ugm-3,2.83322,R,ugm-3,3.05906,R,ugm-3,55.43057,R,ugm-3
07-01-2019,07:00,0.18411,R,ugm-3,4.13635,R,ugm-3,4.41864,R,ugm-3,53.23530,R,ugm-3
07-01-2019,08:00,0.18411,R,ugm-3,6.00577,R,ugm-3,6.28806,R,ugm-3,51.04003,R,ugm-3
07-01-2019,09:00,3.35074,R,ugm-3,10.72406,R,ugm-3,15.86178,R,ugm-3,46.79917,R,ugm-3
07-01-2019,10:00,3.16663,R,ugm-3,12.25263,R,ugm-3,17.10806,R,ugm-3,43.05723,R,ugm-3
07-01-2019,11:00,0.84689,R,ugm-3,12.69381,R,ugm-3,13.99236,R,ugm-3,44.30454,R,ugm-3
07-01-2019,12:00,2.98252,R,ugm-3,9.53251,R,ugm-3,14.10565,R,ugm-3,48.34583,R,ugm-3
07-01-2019,13:00,6.77512,R,ugm-3,7.90933,R,ugm-3,18.29770,R,ugm-3,51.58885,R,ugm-3
07-01-2019,14:00,0.51550,R,ugm-3,8.55670,R,ugm-3,9.34712,R,ugm-3,50.29164,R,ugm-3
07-01-2019,15:00,1.47285,R,ugm-3,10.88428,R,ugm-3,13.14262,R,ugm-3,46.99874,R,ugm-3
07-01-2019,16:00,1.17828,R,ugm-3,6.12422,R,ugm-3,7.93089,R,ugm-3,51.83831,R,ugm-3
07-01-2019,17:00,0.22093,R,ugm-3,6.45916,R,ugm-3,6.79791,R,ugm-3,53.68433,R,ugm-3
07-01-2019,18:00,0.14729,R,ugm-3,7.47846,R,ugm-3,7.70429,R,ugm-3,53.33508,R,ugm-3
07-01-2019,19:00,0.14729,R,ugm-3,5.89228,R,ugm-3,6.11811,R,ugm-3,56.07917,R,ugm-3
07-01-2019,20:00,0.11046,R,ugm-3,3.17293,R,ugm-3,3.34230,R,ugm-3,67.25509,R,ugm-3
07-01-2019,21:00,0.07364,R,ugm-3,1.75651,R,ugm-3,1.86943,R,ugm-3,75.28778,R,ugm-3
07-01-2019,22:00,0.11046,R,ugm-3,3.39952,R,ugm-3,3.56890,R,ugm-3,71.14671,R,ugm-3
07-01-2019,23:00,0.11046,R,ugm-3,3.05963,R,ugm-3,3.22901,R,ugm-3,70.64778,R,ugm-3
07-01-2019,24:00,0.03682,R,ugm-3,2.60606,R,ugm-3,2.66251,R,ugm-3,72.24434,R,ugm-3
08-01-2019,01:00,0.14763,R,ugm-3,2.42356,R,ugm-3,2.64993,R,ugm-3,72.04477,R,ugm-3
08-01-2019,02:00,0.14763,R,ugm-3,2.72641,R,ugm-3,2.95278,R,ugm-3,71.31301,R,ugm-3
08-01-2019,03:00,0.14763,R,ugm-3,2.38571,R,ugm-3,2.61207,R,ugm-3,69.55015,R,ugm-3
08-01-2019,04:00,0.14763,R,ugm-3,2.32892,R,ugm-3,2.55529,R,ugm-3,68.75187,R,ugm-3
08-01-2019,05:00,0.14763,R,ugm-3,1.93143,R,ugm-3,2.15780,R,ugm-3,71.49595,R,ugm-3
08-01-2019,06:00,0.11072,R,ugm-3,1.81767,R,ugm-3,1.98745,R,ugm-3,71.09681,R,ugm-3
08-01-2019,07:00,0.14763,R,ugm-3,1.87465,R,ugm-3,2.10102,R,ugm-3,73.24219,R,ugm-3
08-01-2019,08:00,0.11072,R,ugm-3,3.97547,R,ugm-3,4.14524,R,ugm-3,69.60004,R,ugm-3
08-01-2019,09:00,0.25836,R,ugm-3,7.78078,R,ugm-3,8.17692,R,ugm-3,63.06412,R,ugm-3
08-01-2019,10:00,0.95961,R,ugm-3,10.33973,R,ugm-3,11.81111,R,ugm-3,58.92304,R,ugm-3
08-01-2019,11:00,1.73468,R,ugm-3,10.91162,R,ugm-3,13.57142,R,ugm-3,57.22670,R,ugm-3
08-01-2019,12:00,1.69777,R,ugm-3,8.24257,R,ugm-3,10.84578,R,ugm-3,60.81896,R,ugm-3
08-01-2019,13:00,1.51323,R,ugm-3,7.61698,R,ugm-3,9.93723,R,ugm-3,61.41767,R,ugm-3
08-01-2019,14:00,1.55014,R,ugm-3,8.63929,R,ugm-3,11.01613,R,ugm-3,60.27014,R,ugm-3
08-01-2019,15:00,0.84888,R,ugm-3,8.57884,R,ugm-3,9.88045,R,ugm-3,59.62154,R,ugm-3
08-01-2019,16:00,0.29527,R,ugm-3,6.92921,R,ugm-3,7.38194,R,ugm-3,63.21380,R,ugm-3
08-01-2019,17:00,0.14763,R,ugm-3,5.56562,R,ugm-3,5.79199,R,ugm-3,64.36133,R,ugm-3
08-01-2019,18:00,0.11072,R,ugm-3,6.70111,R,ugm-3,6.87089,R,ugm-3,61.11831,R,ugm-3
08-01-2019,19:00,0.18454,R,ugm-3,8.00753,R,ugm-3,8.29049,R,ugm-3,59.37208,R,ugm-3
08-01-2019,20:00,0.36908,R,ugm-3,12.32409,R,ugm-3,12.89001,R,ugm-3,49.39358,R,ugm-3
08-01-2019,21:00,0.36908,R,ugm-3,17.54824,R,ugm-3,18.11415,R,ugm-3,37.76862,R,ugm-3
08-01-2019,22:00,0.29527,R,ugm-3,15.39005,R,ugm-3,15.84279,R,ugm-3,40.11357,R,ugm-3
08-01-2019,23:00,0.29527,R,ugm-3,13.40261,R,ugm-3,13.85534,R,ugm-3,42.90755,R,ugm-3
08-01-2019,24:00,0.29527,R,ugm-3,13.97045,R,ugm-3,14.42318,R,ugm-3,41.01164,R,ugm-3
09-01-2019,01:00,0.29596,R,ugm-3,14.64875,R,ugm-3,15.10254,R,ugm-3,37.65221,R,ugm-3
09-01-2019,02:00,0.29596,R,ugm-3,12.82734,R,ugm-3,13.28113,R,ugm-3,45.23587,R,ugm-3
09-01-2019,03:00,0.29596,R,ugm-3,10.81619,R,ugm-3,11.26999,R,ugm-3,47.34798,R,ugm-3
09-01-2019,04:00,0.25896,R,ugm-3,8.70999,R,ugm-3,9.10706,R,ugm-3,50.04218,R,ugm-3
09-01-2019,05:00,0.25896,R,ugm-3,5.18101,R,ugm-3,5.57808,R,ugm-3,57.17681,R,ugm-3
09-01-2019,06:00,0.14798,R,ugm-3,4.04204,R,ugm-3,4.26894,R,ugm-3,60.96864,R,ugm-3
09-01-2019,07:00,0.14798,R,ugm-3,3.58669,R,ugm-3,3.81358,R,ugm-3,65.00993,R,ugm-3
09-01-2019,08:00,0.14798,R,ugm-3,4.95274,R,ugm-3,5.17964,R,ugm-3,63.46326,R,ugm-3
09-01-2019,09:00,0.36995,R,ugm-3,9.22285,R,ugm-3,9.79009,R,ugm-3,58.17466,R,ugm-3
09-01-2019,10:00,1.07285,R,ugm-3,12.24326,R,ugm-3,13.88827,R,ugm-3,55.53035,R,ugm-3
09-01-2019,11:00,1.36880,R,ugm-3,9.05735,R,ugm-3,11.15615,R,ugm-3,63.06412,R,ugm-3
09-01-2019,12:00,1.51678,R,ugm-3,8.54585,R,ugm-3,10.87156,R,ugm-3,65.75832,R,ugm-3
09-01-2019,13:00,1.33181,R,ugm-3,8.37412,R,ugm-3,10.41620,R,ugm-3,68.25294,R,ugm-3
09-01-2019,14:00,0.96186,R,ugm-3,8.54293,R,ugm-3,10.01777,R,ugm-3,66.45681,R,ugm-3
09-01-2019,15:00,0.77689,R,ugm-3,8.76964,R,ugm-3,9.96085,R,ugm-3,66.05767,R,ugm-3
09-01-2019,16:00,0.40694,R,ugm-3,10.13375,R,ugm-3,10.75772,R,ugm-3,63.96219,R,ugm-3
09-01-2019,17:00,0.14798,R,ugm-3,9.22168,R,ugm-3,9.44858,R,ugm-3,62.26584,R,ugm-3
09-01-2019,18:00,0.14798,R,ugm-3,10.75850,R,ugm-3,10.98539,R,ugm-3,56.67788,R,ugm-3
09-01-2019,19:00,0.25896,R,ugm-3,19.18311,R,ugm-3,19.58018,R,ugm-3,46.69938,R,ugm-3
09-01-2019,20:00,0.29596,R,ugm-3,15.76816,R,ugm-3,16.22195,R,ugm-3,49.34368,R,ugm-3
09-01-2019,21:00,0.25896,R,ugm-3,11.78362,R,ugm-3,12.18070,R,ugm-3,50.99014,R,ugm-3
09-01-2019,22:00,0.29596,R,ugm-3,11.15771,R,ugm-3,11.61151,R,ugm-3,50.24175,R,ugm-3
09-01-2019,23:00,0.33295,R,ugm-3,16.33755,R,ugm-3,16.84806,R,ugm-3,41.95959,R,ugm-3
09-01-2019,24:00,0.48093,R,ugm-3,26.41301,R,ugm-3,27.15043,R,ugm-3,30.03529,R,ugm-3
10-01-2019,01:00,0.44498,R,ugm-3,24.49759,R,ugm-3,25.17988,R,ugm-3,32.79600,R,ugm-3
10-01-2019,02:00,0.49442,R,ugm-3,19.09673,R,ugm-3,19.85483,R,ugm-3,39.38181,R,ugm-3
10-01-2019,03:00,0.44498,R,ugm-3,17.11859,R,ugm-3,17.80088,R,ugm-3,38.91615,R,ugm-3
10-01-2019,04:00,0.40790,R,ugm-3,12.83934,R,ugm-3,13.46477,R,ugm-3,44.05508,R,ugm-3
10-01-2019,05:00,0.44498,R,ugm-3,11.64140,R,ugm-3,12.32369,R,ugm-3,40.86196,R,ugm-3
10-01-2019,06:00,0.40790,R,ugm-3,14.55096,R,ugm-3,15.17639,R,ugm-3,30.73378,R,ugm-3
10-01-2019,07:00,0.55622,R,ugm-3,24.25094,R,ugm-3,25.10380,R,ugm-3,13.47098,R,ugm-3
10-01-2019,08:00,0.77871,R,ugm-3,30.29986,R,ugm-3,31.49386,R,ugm-3,8.98065,R,ugm-3
10-01-2019,09:00,4.19020,R,ugm-3,38.64785,R,ugm-3,45.07274,R,ugm-3,6.23656,R,ugm-3
10-01-2019,10:00,13.16391,R,ugm-3,39.49421,R,ugm-3,59.67859,R,ugm-3,8.08259,R,ugm-3
10-01-2019,11:00,15.20339,R,ugm-3,36.42411,R,ugm-3,59.73564,R,ugm-3,11.57506,R,ugm-3
10-01-2019,12:00,13.38640,R,ugm-3,35.10223,R,ugm-3,55.62775,R,ugm-3,14.76818,R,ugm-3
10-01-2019,13:00,5.37681,R,ugm-3,26.27341,R,ugm-3,34.51773,R,ugm-3,28.73808,R,ugm-3
10-01-2019,14:00,3.78231,R,ugm-3,24.66744,R,ugm-3,30.46689,R,ugm-3,29.18711,R,ugm-3
10-01-2019,15:00,6.41509,R,ugm-3,35.35052,R,ugm-3,45.18685,R,ugm-3,13.07184,R,ugm-3
10-01-2019,16:00,4.96891,R,ugm-3,34.65820,R,ugm-3,42.27709,R,ugm-3,10.92646,R,ugm-3
10-01-2019,17:00,1.66866,R,ugm-3,36.52348,R,ugm-3,39.08206,R,ugm-3,7.53377,R,ugm-3
10-01-2019,18:00,1.18661,R,ugm-3,38.91719,R,ugm-3,40.73663,R,ugm-3,6.63570,R,ugm-3
10-01-2019,19:00,1.66866,R,ugm-3,41.25897,R,ugm-3,43.81755,R,ugm-3,5.43828,R,ugm-3
10-01-2019,20:00,1.70575,R,ugm-3,43.54133,R,ugm-3,46.15677,R,ugm-3,6.43613,R,ugm-3
10-01-2019,21:00,1.33493,R,ugm-3,40.40138,R,ugm-3,42.44825,R,ugm-3,8.73119,R,ugm-3
10-01-2019,22:00,0.44498,R,ugm-3,22.76695,R,ugm-3,23.44924,R,ugm-3,21.70324,R,ugm-3
10-01-2019,23:00,0.44498,R,ugm-3,21.39765,R,ugm-3,22.07994,R,ugm-3,25.59485,R,ugm-3
10-01-2019,24:00,0.44498,R,ugm-3,21.16943,R,ugm-3,21.85172,R,ugm-3,26.39313,R,ugm-3
11-01-2019,01:00,0.44602,R,ugm-3,21.27672,R,ugm-3,21.96060,R,ugm-3,26.80890,R,ugm-3
11-01-2019,02:00,0.44602,R,ugm-3,21.58173,R,ugm-3,22.26561,R,ugm-3,30.13507,R,ugm-3
11-01-2019,03:00,0.52035,R,ugm-3,18.47485,R,ugm-3,19.27271,R,ugm-3,33.47787,R,ugm-3
11-01-2019,04:00,0.37168,R,ugm-3,14.24206,R,ugm-3,14.81197,R,ugm-3,37.46927,R,ugm-3
11-01-2019,05:00,0.33451,R,ugm-3,14.01311,R,ugm-3,14.52602,R,ugm-3,38.21766,R,ugm-3
11-01-2019,06:00,0.29735,R,ugm-3,12.24005,R,ugm-3,12.69597,R,ugm-3,38.01809,R,ugm-3
11-01-2019,07:00,0.29735,R,ugm-3,13.21226,R,ugm-3,13.66819,R,ugm-3,33.82712,R,ugm-3
11-01-2019,08:00,0.29735,R,ugm-3,13.49821,R,ugm-3,13.95413,R,ugm-3,38.01809,R,ugm-3
11-01-2019,09:00,0.52035,R,ugm-3,15.10070,R,ugm-3,15.89856,R,ugm-3,36.72088,R,ugm-3
11-01-2019,10:00,1.37522,R,ugm-3,15.84872,R,ugm-3,17.95737,R,ugm-3,34.42583,R,ugm-3
11-01-2019,11:00,3.67965,R,ugm-3,19.57833,R,ugm-3,25.22038,R,ugm-3,34.72518,R,ugm-3
11-01-2019,12:00,4.49735,R,ugm-3,18.38173,R,ugm-3,25.27757,R,ugm-3,40.61250,R,ugm-3
11-01-2019,13:00,2.86195,R,ugm-3,16.42856,R,ugm-3,20.81682,R,ugm-3,47.69723,R,ugm-3
11-01-2019,14:00,2.08142,R,ugm-3,14.25120,R,ugm-3,17.44266,R,ugm-3,49.54325,R,ugm-3
11-01-2019,15:00,1.30089,R,ugm-3,11.38758,R,ugm-3,13.38224,R,ugm-3,55.23100,R,ugm-3
11-01-2019,16:00,0.52035,R,ugm-3,14.47161,R,ugm-3,15.26948,R,ugm-3,48.19616,R,ugm-3
11-01-2019,17:00,0.22301,R,ugm-3,13.15468,R,ugm-3,13.49662,R,ugm-3,51.68863,R,ugm-3
11-01-2019,18:00,0.26018,R,ugm-3,17.73000,R,ugm-3,18.12893,R,ugm-3,46.05078,R,ugm-3
11-01-2019,19:00,0.14867,R,ugm-3,11.78174,R,ugm-3,12.00970,R,ugm-3,56.12906,R,ugm-3
11-01-2019,20:00,0.14867,R,ugm-3,8.92229,R,ugm-3,9.15025,R,ugm-3,53.48476,R,ugm-3
11-01-2019,21:00,0.44602,R,ugm-3,26.19498,R,ugm-3,26.87886,R,ugm-3,27.74023,R,ugm-3
11-01-2019,22:00,0.33451,R,ugm-3,18.47386,R,ugm-3,18.98677,R,ugm-3,33.92690,R,ugm-3
11-01-2019,23:00,0.37168,R,ugm-3,18.76000,R,ugm-3,19.32990,R,ugm-3,32.43013,R,ugm-3
11-01-2019,24:00,0.52035,R,ugm-3,28.02542,R,ugm-3,28.82329,R,ugm-3,27.49077,R,ugm-3
12-01-2019,01:00,0.44706,R,ugm-3,23.92564,R,ugm-3,24.61112,R,ugm-3,33.52776,R,ugm-3
12-01-2019,02:00,0.29804,R,ugm-3,9.47918,R,ugm-3,9.93616,R,ugm-3,48.29594,R,ugm-3
12-01-2019,03:00,0.29804,R,ugm-3,7.33908,R,ugm-3,7.79607,R,ugm-3,47.89680,R,ugm-3
12-01-2019,04:00,0.14902,R,ugm-3,4.75870,R,ugm-3,4.98719,R,ugm-3,49.14411,R,ugm-3
12-01-2019,05:00,0.14902,R,ugm-3,2.35109,R,ugm-3,2.57958,R,ugm-3,51.98799,R,ugm-3
12-01-2019,06:00,0.14902,R,ugm-3,2.06447,R,ugm-3,2.29296,R,ugm-3,50.39143,R,ugm-3
12-01-2019,07:00,0.14902,R,ugm-3,2.52306,R,ugm-3,2.75155,R,ugm-3,47.79702,R,ugm-3
12-01-2019,08:00,0.11176,R,ugm-3,2.35089,R,ugm-3,2.52226,R,ugm-3,49.74282,R,ugm-3
12-01-2019,09:00,0.11176,R,ugm-3,2.12159,R,ugm-3,2.29296,R,ugm-3,52.33723,R,ugm-3
12-01-2019,10:00,0.26078,R,ugm-3,4.75930,R,ugm-3,5.15916,R,ugm-3,48.79487,R,ugm-3
12-01-2019,11:00,0.48431,R,ugm-3,5.04712,R,ugm-3,5.78973,R,ugm-3,52.93594,R,ugm-3
12-01-2019,12:00,0.29804,R,ugm-3,3.67034,R,ugm-3,4.12733,R,ugm-3,61.81681,R,ugm-3
12-01-2019,13:00,0.29804,R,ugm-3,3.38372,R,ugm-3,3.84071,R,ugm-3,63.46326,R,ugm-3
12-01-2019,14:00,0.26078,R,ugm-3,3.78479,R,ugm-3,4.18465,R,ugm-3,63.01423,R,ugm-3
12-01-2019,15:00,0.18627,R,ugm-3,3.26847,R,ugm-3,3.55409,R,ugm-3,62.81466,R,ugm-3
12-01-2019,16:00,0.14902,R,ugm-3,3.66954,R,ugm-3,3.89804,R,ugm-3,61.46756,R,ugm-3
12-01-2019,17:00,0.18627,R,ugm-3,3.38312,R,ugm-3,3.66874,R,ugm-3,62.51530,R,ugm-3
12-01-2019,18:00,0.22353,R,ugm-3,4.18586,R,ugm-3,4.52860,R,ugm-3,59.22240,R,ugm-3
12-01-2019,19:00,0.14902,R,ugm-3,5.04532,R,ugm-3,5.27381,R,ugm-3,58.02498,R,ugm-3
12-01-2019,20:00,0.11176,R,ugm-3,4.64385,R,ugm-3,4.81522,R,ugm-3,58.87315,R,ugm-3
12-01-2019,21:00,0.14902,R,ugm-3,2.69503,R,ugm-3,2.92353,R,ugm-3,62.21595,R,ugm-3